Torna al catalogo

STARLINK-1554

AttivoComunicazioniVLEO
NORAD 46055·PAYLOAD·🇺🇸 United States

Lanciato Aug 7, 2020 da Cape Canaveral Space Force Station

Loading…

Prossimi Passaggi (prossime 24 ore)

TLE

AggiornatoSource: CelesTrak SupGP

Epoca: Sep 14, 2026, 13:42 UTC

1 46055C 20055AE  26257.57131944  .00043311  00000+0  13931-2 0  2575
2 46055  53.1602 315.0299 0001309  74.7150  33.4914 15.31673792    14

Traccia STARLINK-1554 in tempo reale con AllMySat

Download on the App Store